Date String (YYYY-MM-DD hh:mm:ss) UTC,Instrument flags,Ambient pressure (hPa),Sample flow (lpm),Bypass flow (lpm),Sample temperature (°C),Ambient temperature (°C),ASC tube jacket temperature (°C),LED temperature (°C),Box temperature (°C),Sample RH (%),Span deviation,Mass concentration (μg/m³),Mass concentration (μg/m³),Mass concentration (μg/m³)
DateTimeUTC,F1_M11,P_M11,Q1_M11,Q2_M11,T1_M11,T2_M11,T3_M11,T4_M11,T5_M11,U1_M11,ZSPAN_M11,X0_M11,X2_M11,X1_M11
2022-06-01 14:00:00,,0833.1,5.01,0.00,25.5,24.5,00.0,34.4,27.5,23.3,0000.0,0001.98,0001.71,0001.56
2022-06-01 14:01:00,,0833.0,5.00,0.00,25.5,24.5,00.0,34.4,27.5,23.1,0000.0,0002.18,0001.78,0001.61
2022-06-01 14:02:00,,0833.1,5.01,0.00,25.5,24.5,00.0,34.4,27.5,23.1,0000.0,0002.22,0001.84,0001.66
2022-06-01 14:03:00,,0833.1,4.99,0.00,25.5,24.5,00.0,34.4,27.5,23.1,0000.0,0002.22,0001.88,0001.69
2022-06-01 14:04:00,,0833.1,5.01,0.00,25.5,24.5,00.0,34.4,27.5,23.1,0000.0,0002.26,0001.91,0001.70
2022-06-01 14:05:00,,0833.1,4.99,0.00,25.5,24.5,00.0,34.4,27.5,23.0,0000.0,0002.33,0001.96,0001.73
2022-06-01 14:06:00,,0833.1,5.00,0.00,25.5,24.5,00.0,34.4,27.5,23.1,0000.0,0002.35,0001.99,0001.77
2022-06-01 14:07:00,,0833.1,5.01,0.00,25.5,24.5,00.0,34.4,27.5,23.3,0000.0,0002.92,0001.97,0001.78
2022-06-01 14:08:00,,0833.1,5.00,0.00,25.5,24.5,00.0,34.4,27.5,23.4,0000.0,0003.28,0001.94,0001.76
2022-06-01 14:09:00,,0833.1,5.01,0.00,25.5,24.5,00.0,34.4,27.5,23.5,0000.0,0003.34,0001.96,0001.78
2022-06-01 14:10:00,,0833.0,4.99,0.00,25.5,24.5,00.0,34.4,27.5,23.4,0000.0,0003.32,0001.96,0001.78
2022-06-01 14:11:00,,0833.1,5.00,0.00,25.5,24.5,00.0,34.4,27.5,23.5,0000.0,0003.39,0001.99,0001.80
2022-06-01 14:12:00,,0833.1,4.99,0.00,25.5,24.5,00.0,34.4,27.5,23.7,0000.0,0003.30,0001.99,0001.81
2022-06-01 14:13:00,,0833.1,5.02,0.00,25.5,24.5,00.0,34.4,27.5,23.6,0000.0,0003.38,0002.02,0001.83
2022-06-01 14:14:00,,0833.1,5.00,0.00,25.5,24.5,00.0,34.4,27.5,23.4,0000.0,0003.45,0002.05,0001.86
2022-06-01 14:15:00,,0833.1,5.00,0.00,25.5,24.5,00.0,34.4,27.4,23.3,0000.0,0003.48,0002.09,0001.90
2022-06-01 14:16:00,,0833.2,5.01,0.00,25.5,24.5,00.0,34.4,27.4,23.2,0000.0,0003.61,0002.14,0001.92
2022-06-01 14:17:00,,0833.1,5.00,0.00,25.5,24.5,00.0,34.4,27.4,23.3,0000.0,0003.69,0002.17,0001.93
2022-06-01 14:18:00,,0833.1,4.99,0.00,25.5,24.5,00.0,34.4,27.4,23.3,0000.0,0003.08,0002.21,0001.95
2022-06-01 14:19:00,,0833.0,5.01,0.00,25.5,24.4,00.0,34.4,27.4,23.4,0000.0,0003.12,0002.27,0001.98
2022-06-01 14:20:00,,0833.0,5.00,0.00,25.5,24.4,00.0,34.4,27.4,23.3,0000.0,0003.29,0002.29,0001.98
2022-06-01 14:21:00,,0833.1,5.00,0.00,25.5,24.4,00.0,34.4,27.4,23.3,0000.0,0003.24,0002.26,0001.97
2022-06-01 14:22:00,,0833.1,4.99,0.00,25.5,24.4,00.0,34.4,27.4,23.4,0000.0,0003.21,0002.25,0001.96
2022-06-01 14:23:00,,0833.1,5.01,0.00,25.5,24.4,00.0,34.4,27.4,23.4,0000.0,0004.05,0002.27,0001.96
2022-06-01 14:24:00,,0833.1,4.99,0.00,25.5,24.4,00.0,34.4,27.4,23.2,0000.0,0004.24,0002.28,0001.97
2022-06-01 14:25:00,,0833.1,5.01,0.00,25.4,24.4,00.0,34.4,27.4,23.2,0000.0,0004.16,0002.24,0001.95
2022-06-01 14:26:00,,0833.0,5.00,0.00,25.5,24.4,00.0,34.4,27.4,23.4,0000.0,0004.20,0002.23,0001.92
2022-06-01 14:27:00,,0833.0,5.01,0.00,25.5,24.4,00.0,34.4,27.4,23.4,0000.0,0004.21,0002.23,0001.92
2022-06-01 14:28:00,,0833.0,5.00,0.00,25.4,24.4,00.0,34.4,27.4,23.5,0000.0,0004.14,0002.20,0001.92
2022-06-01 14:29:00,,0833.1,5.00,0.00,25.5,24.4,00.0,34.4,27.4,23.2,0000.0,0004.21,0002.22,0001.91
2022-06-01 14:30:00,,0833.0,4.99,0.00,25.4,24.4,00.0,34.4,27.4,23.0,0000.0,0004.11,0002.23,0001.91
2022-06-01 14:31:00,,0833.0,5.01,0.00,25.4,24.4,00.0,34.4,27.4,23.0,0000.0,0003.82,0002.20,0001.90
2022-06-01 14:32:00,,0833.0,5.00,0.00,25.4,24.4,00.0,34.4,27.4,22.8,0000.0,0003.98,0002.22,0001.89
2022-06-01 14:33:00,,0833.1,4.99,0.00,25.4,24.4,00.0,34.4,27.4,22.8,0000.0,0003.96,0002.21,0001.88
2022-06-01 14:34:00,,0833.1,4.99,0.00,25.4,24.4,00.0,34.4,27.4,23.0,0000.0,0003.68,0002.15,0001.85
2022-06-01 14:35:00,,0833.1,5.00,0.00,25.4,24.4,00.0,34.4,27.4,23.1,0000.0,0002.73,0002.08,0001.80
2022-06-01 14:36:00,,0833.1,4.99,0.00,25.4,24.4,00.0,34.4,27.4,23.1,0000.0,0002.71,0002.05,0001.75
2022-06-01 14:37:00,,0833.1,4.99,0.00,25.4,24.4,00.0,34.4,27.4,23.2,0000.0,0002.75,0002.04,0001.73
2022-06-01 14:38:00,,0833.1,5.01,0.00,25.5,24.4,00.0,34.4,27.4,23.2,0000.0,0002.98,0001.98,0001.70
2022-06-01 14:39:00,,0833.1,4.99,0.00,25.5,24.4,00.0,34.4,27.4,23.1,0000.0,0003.22,0001.94,0001.67
2022-06-01 14:40:00,,0833.1,5.00,0.00,25.5,24.4,00.0,34.4,27.4,23.0,0000.0,0003.28,0001.95,0001.65
2022-06-01 14:41:00,,0833.1,5.01,0.00,25.5,24.5,00.0,34.4,27.4,22.8,0000.0,0003.21,0001.93,0001.64
2022-06-01 14:42:00,,0833.1,4.99,0.00,25.5,24.5,00.0,34.4,27.4,22.6,0000.0,0003.16,0001.90,0001.62
2022-06-01 14:43:00,,0833.2,5.01,0.00,25.5,24.5,00.0,34.4,27.4,22.7,0000.0,0002.97,0001.85,0001.60
2022-06-01 14:44:00,,0833.2,4.99,0.00,25.5,24.5,00.0,34.4,27.4,22.7,0000.0,0002.90,0001.81,0001.58
2022-06-01 14:45:00,,0833.2,5.01,0.00,25.5,24.5,00.0,34.4,27.4,22.9,0000.0,0002.89,0001.80,0001.57
2022-06-01 14:46:00,,0833.1,4.99,0.00,25.5,24.5,00.0,34.4,27.4,22.9,0000.0,0002.87,0001.79,0001.57
2022-06-01 14:47:00,,0833.1,5.00,0.00,25.5,24.5,00.0,34.4,27.4,22.9,0000.0,0002.87,0001.78,0001.56
2022-06-01 14:48:00,,0833.1,4.99,0.00,25.5,24.5,00.0,34.4,27.4,22.8,0000.0,0002.80,0001.75,0001.53
2022-06-01 14:49:00,,0833.1,5.00,0.00,25.5,24.5,00.0,34.4,27.4,22.7,0000.0,0002.45,0001.75,0001.52
2022-06-01 14:50:00,,0833.1,5.01,0.00,25.5,24.5,00.0,34.4,27.4,22.5,0000.0,0002.67,0001.72,0001.50
2022-06-01 14:51:00,,0833.1,4.99,0.00,25.5,24.5,00.0,34.4,27.4,22.5,0000.0,0002.62,0001.66,0001.47
2022-06-01 14:52:00,,0833.1,4.99,0.00,25.5,24.5,00.0,34.4,27.4,22.4,0000.0,0002.52,0001.60,0001.44
2022-06-01 14:53:00,,0833.1,5.01,0.00,25.5,24.4,00.0,34.4,27.4,22.5,0000.0,0002.47,0001.55,0001.39
2022-06-01 14:54:00,,0833.1,4.99,0.00,25.5,24.5,00.0,34.4,27.4,22.7,0000.0,0002.45,0001.53,0001.36
2022-06-01 14:55:00,,0833.1,5.02,0.00,25.5,24.5,00.0,34.4,27.4,22.8,0000.0,0002.49,0001.52,0001.33
2022-06-01 14:56:00,,0833.1,4.99,0.00,25.5,24.4,00.0,34.4,27.4,22.7,0000.0,0003.00,0001.50,0001.29
2022-06-01 14:57:00,,0833.1,5.01,0.00,25.5,24.4,00.0,34.4,27.4,22.7,0000.0,0003.87,0001.46,0001.25
2022-06-01 14:58:00,,0833.1,4.99,0.00,25.5,24.4,00.0,34.4,27.4,23.0,0000.0,0003.81,0001.42,0001.23
2022-06-01 14:59:00,,0833.1,5.00,0.00,25.5,24.4,00.0,34.4,27.4,23.1,0000.0,0003.82,0001.41,0001.22
